Regional Weather Roundup
Issued by NWS Grand Forks, ND

Home | Current Version | Previous Version | Graphics & Text | Print | Product List | Glossary On
Versions: 1 2 3 4 5 6 7 8 9 10 11 12 13 14 15 16 17 18 19 20 21 22 23 24 25 26 27 28 29 30 31 32 33 34 35 36 37 38 39 40 41 42 43 44 45 46 47 48 49 50
000
ASUS43 KFGF 240610
RWRFGF
PRAIRIE TO PINES  WEATHER ROUNDUP
NATIONAL WEATHER SERVICE EASTERN NORTH DAKOTA/GRAND FORKS ND
100 AM CDT TUE MAY 24 2016

 **SATELLITE DATA USED TO AUGMENT SKY COVER AT AUTOMATED STATIONS**
 *****  WEATHER ACROSS EASTERN NORTH DAKOTA  *****

CITY           SKY/WX    TMP DP  RH WIND       PRES   REMARKS
GRAND FORKS    CLOUDY    62  51  67 E7        29.71S
6HR MIN TEMP:  61; 6HR MAX TEMP:  80;

GRAND FRKS AFB MOCLDY    63  48  57 E6        29.72S
GRAND FRKS NWS   N/A     61 N/A N/A E5          N/A
DEVILS LAKE    CLOUDY    62  48  60 W13       29.75R
6HR MIN TEMP:  59; 6HR MAX TEMP:  77; 6HR PCP: TRACE;

FARGO          CLOUDY    60  49  66 W9        29.71R
WAHPETON ARPT  CLOUDY    61  45  55 CALM      29.73R
$$

 ***** WEATHER ACROSS CENTRAL AND WESTERN NORTH DAKOTA  *****

CITY           SKY/WX    TMP DP  RH WIND       PRES   REMARKS
BISMARCK       CLOUDY    59  47  64 SE12      29.74F
6HR MIN TEMP:  59; 6HR MAX TEMP:  76; 6HR PCP:  0.01;

MINOT          CLEAR     54  44  69 SW7       29.75R
6HR MIN TEMP:  52; 6HR MAX TEMP:  78; 6HR PCP: TRACE;

JAMESTOWN      TSTM      57  50  77 NW21G32   29.75R
6HR MIN TEMP:  57; 6HR MAX TEMP:  77; 6HR PCP:  0.04;

MINOT AFB      CLEAR     48  39  71 W7        29.74R
GARRISON         N/A     51  43  74 W6        29.77R
WILLISTON      CLEAR     49  39  68 SW7       29.77R
6HR MIN TEMP:  49; 6HR MAX TEMP:  70;

DICKINSON      CLEAR     41  34  76 S3        29.78S
6HR MIN TEMP:  41; 6HR MAX TEMP:  67;

HETTINGER      CLEAR     40  36  86 W6        29.82R
6HR MIN TEMP:  39; 6HR MAX TEMP:  68; 6HR PCP: TRACE;

$$

 *****  OTHER AIRPORT OBSERVATIONS IN OUR AREA  *****

CITY           SKY/WX    TMP DP  RH WIND       PRES   REMARKS
WALHALLA       FAIR      61  41  48 CALM      29.73R
GRAFTON AIRPOR FAIR      61  50  67 E7        29.73S
VALLEY CITY AR FAIR      55  52  88 CALM      29.75F
CANDO          NOT AVBL
CAVALIER APRT  FAIR      64  48  55 CALM      29.73R
GWINNER        FAIR      63  57  82 S7        29.73S
SHEYENNE NWR     N/A     59  49  68 CALM      29.95
ROLLA          FAIR      54  41  62 CALM      29.76S
 ***** THE ABOVE OBSERVATIONS ARE NON NWS ARE NOT QUALITY
       CONTROLLED AND MAY MIS-REPORT RAIN FOR SNOW...
$$

  *****  WEATHER ACROSS NORTHERN MINNESOTA  *****

CITY           SKY/WX    TMP DP  RH WIND       PRES   REMARKS
FLAG ISLAND    CLOUDY    63  48  59 S3        29.72R
WARROAD        CLOUDY    59  52  77 CALM      29.73F
ROSEAU         CLOUDY    64  46  52 CALM      29.73S
HALLOCK        PTCLDY    64  46  52 S12       29.71S
THF RVR FALLS  CLOUDY    61  46  59 N8        29.77R
6HR MIN TEMP:  61; 6HR MAX TEMP:  79;

BAUDETTE       CLOUDY    54  50  86 E3        29.73S
6HR MIN TEMP:  54; 6HR MAX TEMP:  77;

WASKISH        CLOUDY    55  54  94 CALM      29.75S
CROOKSTON      PTCLDY    63  50  63 NE6       29.74S
STEPHEN NDAWN    N/A     64  48  55 N7          N/A
GREENBUSH NDAW   N/A     63  52  67 W3          N/A
$$
  *****  WEATHER ACROSS CENTRAL AND WEST MINNESOTA  *****

CITY           SKY/WX    TMP DP  RH WIND       PRES   REMARKS
FOSSTON          N/A     61  54  77 CALM      29.74S
BEMIDJI        CLOUDY    63  55  76 CALM      29.75S
PARK RAPIDS    CLOUDY    66  59  78 E6        29.75F
6HR MIN TEMP:  65; 6HR MAX TEMP:  77;

ELBOW LAKE     FAIR      60  57  90 S6        29.74S
6HR MIN TEMP:  60; 6HR MAX TEMP:  76;

WADENA         CLOUDY    63  61  94 CALM      29.74S
DETROIT LAKES  LGT RAIN  61  54  77 E6        29.76S
MOORHEAD       CLOUDY    63  54  72 CALM      29.72S
FERGUS FALLS   MOCLDY    64  55  72 S7        29.70S
MORRIS MN      PTCLDY    63  54  72 S3        29.74R
STAPLES        CLOUDY    61  61 100 S5        29.74F
$$
  *****  WEATHER ELSEWHERE ACROSS MINNESOTA  *****

CITY           SKY/WX    TMP DP  RH WIND       PRES   REMARKS
DULUTH         CLOUDY    61  59  93 S6        29.79S
6HR MIN TEMP:  61; 6HR MAX TEMP:  72; 6HR PCP:  0.15;

INTRNTL FALLS  CLOUDY    51  51 100 CALM      29.75R FOG
6HR MIN TEMP:  51; 6HR MAX TEMP:  70;

ELY            DRIZZLE   59  57  94 S5        29.80R
CLOQUET        CLOUDY    61  57  88 CALM      29.78F
WHEATON        CLOUDY    64  55  72 S5        29.75R
BRAINERD       CLOUDY    60  60 100 CALM      29.76S FOG
6HR MIN TEMP:  59; 6HR MAX TEMP:  68; 6HR PCP: TRACE;

HIBBING        CLOUDY    60  58  92 SE3       29.78R
6HR MIN TEMP:  60; 6HR MAX TEMP:  72; 6HR PCP: TRACE;

ALEXANDRIA     LGT RAIN  63  61  93 S3        29.76S
6HR MIN TEMP:  63; 6HR MAX TEMP:  75; 6HR PCP: TRACE;

SAINT CLOUD    CLOUDY    62  61  96 S7        29.76S
6HR MIN TEMP:  62; 6HR MAX TEMP:  67; 6HR PCP:  0.09;

MINNEAPOLIS    CLOUDY    66  60  81 SE9       29.80F
6HR MIN TEMP:  66; 6HR MAX TEMP:  75; 6HR PCP: TRACE;

$$

  *****  WEATHER ACROSS SOUTH DAKOTA  *****

CITY           SKY/WX    TMP DP  RH WIND       PRES   REMARKS
SIOUX FALLS    CLOUDY    64  62  93 S8        29.78S
6HR MIN TEMP:  64; 6HR MAX TEMP:  73;

BROOKINGS      CLOUDY    62  60  93 S9        29.78R
WATERTOWN      CLEAR     60  54  80 S6        29.77R
6HR MIN TEMP:  60; 6HR MAX TEMP:  74;

HURON          CLEAR     62  58  86 S8        29.74R
6HR MIN TEMP:  62; 6HR MAX TEMP:  76;

SISSETON         N/A     60  52  74 SW6       29.72S
ABERDEEN       PTCLDY    56  51  84 SE3       29.74R
6HR MIN TEMP:  56; 6HR MAX TEMP:  80;

MITCHELL       CLEAR     64  61  90 SE8       29.75S
PIERRE         CLOUDY    61  44  53 SW6       29.74R
6HR MIN TEMP:  57; 6HR MAX TEMP:  77;

MOBRIDGE       CLOUDY    59  45  59 N10       29.73F
RAPID CITY     CLOUDY    59  33  37 N14       29.82R
6HR MIN TEMP:  50; 6HR MAX TEMP:  74;

$$

  *****  SOME WEATHER IN NEARBY STATES *****

CITY           SKY/WX    TMP DP  RH WIND       PRES   REMARKS
GLASGOW MT     PTCLDY    47  41  80 W7        29.77S
6HR MIN TEMP:  47; 6HR MAX TEMP:  59;

GREAT FALLS MT CLOUDY    42  40  92 CALM      29.89R
6HR MIN TEMP:  41; 6HR MAX TEMP:  48; 6HR PCP:  0.07;

CHEYENNE WY    CLOUDY    45  38  76 CALM      29.98R
6HR MIN TEMP:  44; 6HR MAX TEMP:  59;

SCOTTSBLUFF NE CLEAR     44  41  89 CALM      29.90S
6HR MIN TEMP:  44; 6HR MAX TEMP:  56; 6HR PCP: TRACE;

OMAHA NE       TSTM      66  63  90 CALM      29.85R
6HR MIN TEMP:  65; 6HR MAX TEMP:  71; 6HR PCP:  0.18;

DES MOINES IA  MOCLDY    68  60  75 S8        29.87S
6HR MIN TEMP:  66; 6HR MAX TEMP:  73;

DAVENPORT IA   CLOUDY    67  48  50 S7        29.92R
6HR MIN TEMP:  64; 6HR MAX TEMP:  80;

CHICAGO IL     PTCLDY    60  43  53 S6        29.94R
6HR MIN TEMP:  60; 6HR MAX TEMP:  77;

EAU CLAIRE WI  LGT RAIN  64  62  93 SW3       29.84F
6HR MIN TEMP:  63; 6HR MAX TEMP:  79; 6HR PCP:  0.14;

LA CROSSE WI   CLOUDY    69  59  70 CALM      29.85S
6HR MIN TEMP:  68; 6HR MAX TEMP:  82;

$$

  *****  SOME NATIONAL WEATHER *****

CITY           SKY/WX    TMP DP  RH WIND       PRES   REMARKS
LA GUARDIA NY  LGT RAIN  64  55  72 SW3       29.89F
6HR MIN TEMP:  64; 6HR MAX TEMP:  68; 6HR PCP: TRACE;

RALEIGH NC     PTCLDY    52  51  97 CALM      30.04S
6HR MIN TEMP:  51; 6HR MAX TEMP:  62;

ATLANTA GA     PTCLDY    66  52  60 CALM      30.03S
6HR MIN TEMP:  65; 6HR MAX TEMP:  77;

NEW ORLEANS LA CLEAR     72  64  76 SE6       30.01S
6HR MIN TEMP:  72; 6HR MAX TEMP:  83;

OKLAHOMA CITY  CLOUDY    70  69  97 SE12      29.87F
6HR MIN TEMP:  70; 6HR MAX TEMP:  71; 6HR PCP:  0.01;

ALBUQUERQUE NM CLEAR     61  14  16 SE7       29.94R
6HR MIN TEMP:  61; 6HR MAX TEMP:  85;

SALT LAKE CITY PTCLDY    53  41  63 W6        29.82S
6HR MIN TEMP:  53; 6HR MAX TEMP:  70;

LOS ANGELES CA MOCLDY   C1F1C2F2C3F3C4F4C5F5C6F6C7F7C8F8C9F9CaFaCbFbCcFcCd!


USA.gov is the U.S. government's official web portal to all federal, state and local government web resources and services.